Regional Weather Roundup
Issued by NWS Cleveland, OH

Home | Current Version | Previous Version | Text Only | Print | Product List | Glossary Off
Versions: 1 2 3 4 5 6 7 8 9 10 11 12 13 14 15 16 17 18 19 20 21 22 23 24 25 26 27 28 29 30 31 32 33 34 35 36 37 38 39 40 41 42 43 44 45 46 47 48 49 50

000
ASUS41 KCLE 262102
RWRCLE
OHIO REGIONAL WEATHER ROUNDUP
NATIONAL WEATHER SERVICE CLEVELAND, OH
500 PM EDT TUE JUL 26 2016

NOTE: "FAIR" INDICATES FEW OR NO CLOUDS BELOW 12,000 FEET WITH NO
SIGNIFICANT WEATHER AND/OR OBSTRUCTIONS TO VISIBILITY.

OHZ001>008-015>018-024>027-034-035-043-044-262200-
   NORTHWEST OHIO

CITY           SKY/WX    TMP DP  RH WIND       PRES   REMARKS
DEFIANCE       MOSUNNY   87  61  41 NE3       30.01F
FINDLAY        CLOUDY    85  60  42 CALM      30.00F
TOLEDO EXPRESS MOSUNNY   86  59  39 NE3       30.00F
TOLEDO EXEC    CLOUDY    85  61  44 E5        30.02S
LIMA           CLOUDY    83  68  60 NE6       30.01F
$$

OHZ009>014-019>023-028>033-038-089-262200-
   NORTHEAST OHIO

CITY           SKY/WX    TMP DP  RH WIND       PRES   REMARKS
CLE-HOPKINS    PTSUNNY   82  56  40 N8        30.04S
CLE-LAKEFRONT  CLOUDY    79  62  56 NE7       30.02S
CUY CO. ARPT   PTSUNNY  N/A N/A N/A NE12      30.04S
LORAIN-ELYRIA  CLOUDY    80  61  52 NE7       30.03F
ASHTABULA      MOSUNNY   78  58  49 N5        30.03F
AKRON-CANTON   PTSUNNY   85  58  39 CALM      30.02S
WOOSTER        CLOUDY    85  61  44 NW3       30.02F
MANSFIELD      CLOUDY    84  62  47 N6        30.03F
YOUNGSTOWN     PTSUNNY   83  57  41 NE6       30.02F
$$

OHZ042-051>053-060>062-070>072-077>081-262200-
  SOUTHWEST OHIO

CITY           SKY/WX    TMP DP  RH WIND       PRES   REMARKS
CINC-COVINGTON NOT AVBL
CINC-LUNKEN    CLOUDY    80  76  87 S3        30.00F
HAMILTON       CLOUDY    82  72  71 CALM      30.01F
DAYTON         CLOUDY    80  69  69 W6        30.02S
WRIGHT-PAT AFB NOT AVBL
DAYTON GENERAL CLOUDY    82  69  64 CALM      30.01S
WILMINGTON     CLOUDY    79  73  82 CALM      30.01F
$$

OHZ036-037-039>041-045>050-054>059-063>069-073>076-082>088-262200-
  CENTRAL AND SOUTHEAST OHIO

CITY           SKY/WX    TMP DP  RH WIND       PRES   REMARKS
COLUMBUS       LGT RAIN  84  68  58 S5        29.98F
OSU AIRPORT    CLOUDY    86  68  54 N8        29.98F
BOLTON FIELD   PTSUNNY   81  73  78 W6        30.00F
RICKENBACK AFB CLOUDY    80  73  80 SW7       29.99F
NEWARK         CLOUDY    84  64  50 N3        29.98F
MARION         CLOUDY    85  63  47 NE6       30.01F
LANCASTER      LGT RAIN  78  76  93 CALM      30.00F
ZANESVILLE     CLOUDY    88  66  48 CALM      29.99F HX  90
NEW PHILLY     CLOUDY    91  61  36 N8        30.00F HX  91
$$



USA.gov is the U.S. government's official web portal to all federal, state and local government web resources and services.